Change the Weather History Date:

Saturday, March 30, 2013

  Actual Average Record
Temperature  
Mean Temperature 34 °F -  
Max Temperature 41 °F 54 °F 67 °F (2014)
Min Temperature 27 °F 40 °F 27 °F (2013)
Degree Days  
Heating Degree Days 31    
Moisture  
Dew Point 27 °F    
Average Humidity 77    
Maximum Humidity 93    
Minimum Humidity 50    
Precipitation  
Precipitation 0.00 in - - ()
Sea Level Pressure  
Sea Level Pressure 29.82 in    
Wind  
Wind Speed 7 mph ()    
Max Wind Speed 15 mph    
Max Gust Speed -    
Visibility 4.8 miles    
Events Rain , Snow    
Averages and records for this station are not official NWS values.
T = Trace of Precipitation, MM = Missing Value Source: Averaged Metar Reports

Daily Weather History Graph

Daily Weather History Graph

Search for Another Location

Airport or City:

Trip Planner

Search our weather history database for the weather conditions in past years. The results will help you decide how hot, cold, wet, or windy it might be!

Date:

Astronomy

Mar. 30, 2013 Rise Set
Actual Time 6:19 AM CET 7:11 PM CET
Civil Twilight 5:45 AM CET 7:46 PM CET
Nautical Twilight 5:04 AM CET 8:27 PM CET
Astronomical Twilight 4:19 AM CET 9:12 PM CET
Moon 11:32 PM CET (3/30) 7:35 AM CET (3/30)
Length of Visible Light 14h 00m
Length of Day
12h 51m
Waning Gibbous, 88% of the Moon is Illuminated
Mar 30
Waning Gibbous
Apr 3
Last Quarter
Apr 10
New
Apr 18
First Quarter
Apr 25
Full

Hourly Weather History & Observations

Time (CET) Temp. Windchill Dew Point Humidity Pressure Visibility Wind Dir Wind Speed Gust Speed Precip Events Conditions
12:25 AM 30.2 °F 24.3 °F 26.6 °F 86% 29.80 in 3.1 mi NNE 5.8 mph - N/A   Scattered Clouds
12:55 AM 28.4 °F 22.2 °F 26.6 °F 93% 29.80 in 3.1 mi NNE 5.8 mph - N/A   Partly Cloudy
1:00 AM 29 °F - 26 °F 86% 29.80 in 3 mi North 4.5 mph - -   Mist
1:25 AM 28.4 °F 23.3 °F 26.6 °F 93% 29.77 in - North 4.6 mph - N/A   Partly Cloudy
1:55 AM 30.2 °F 24.3 °F 26.6 °F 86% 29.77 in - North 5.8 mph - N/A   Partly Cloudy
2:25 AM 30.2 °F 23.4 °F 26.6 °F 86% 29.77 in 3.1 mi North 6.9 mph - N/A   Mostly Cloudy
2:55 AM 28.4 °F 22.2 °F 24.8 °F 86% 29.77 in 4.3 mi North 5.8 mph - N/A   Partly Cloudy
3:25 AM 28.4 °F 23.3 °F 26.6 °F 93% 29.77 in 3.7 mi NNE 4.6 mph - N/A   Unknown
3:55 AM 30.2 °F 26.7 °F 26.6 °F 86% 29.77 in 2.8 mi North 3.5 mph - N/A   Unknown
4:00 AM 29 °F - 27 °F 87% 29.79 in 3 mi North 4.5 mph - -   Mist
4:25 AM 30.2 °F 26.7 °F 28.4 °F 93% 29.77 in - North 3.5 mph - N/A   Partly Cloudy
4:55 AM 30.2 °F - 28.4 °F 93% 29.77 in - North 2.3 mph - N/A   Partly Cloudy
5:25 AM 30.2 °F 26.7 °F 28.4 °F 93% 29.77 in 2.2 mi NNW 3.5 mph - N/A Snow Light Snow
5:55 AM 28.4 °F 24.6 °F 26.6 °F 93% 29.77 in 1.7 mi NNW 3.5 mph - N/A Snow Light Snow
6:25 AM 30.2 °F 24.3 °F 28.4 °F 93% 29.77 in 1.6 mi NNE 5.8 mph - N/A   Scattered Clouds
6:55 AM 32.0 °F 25.6 °F 30.2 °F 93% 29.80 in 1.6 mi NNE 6.9 mph - N/A Snow Mostly Cloudy
7:00 AM 31 °F - 29 °F 92% 29.80 in 2 mi NNE 4.5 mph - - Snow Light Snow Showers
7:25 AM 32.0 °F 25.6 °F 30.2 °F 93% 29.80 in 1.9 mi NNE 6.9 mph - N/A   Scattered Clouds
7:55 AM 33.8 °F 27.7 °F 30.2 °F 87% 29.80 in 2.8 mi NE 6.9 mph - N/A Snow Partly Cloudy
8:25 AM 33.8 °F 27.0 °F 30.2 °F 87% 29.80 in 2.8 mi NNE 8.1 mph - N/A Snow Scattered Clouds
8:55 AM 33.8 °F 26.4 °F 30.2 °F 87% 29.80 in 3.7 mi NE 9.2 mph - N/A Snow Light Snow
9:25 AM 35.6 °F 29.2 °F 32.0 °F 87% 29.80 in 4.3 mi NE 8.1 mph - N/A   Scattered Clouds
9:55 AM 35.6 °F 29.2 °F 30.2 °F 81% 29.80 in 6.2 mi NE 8.1 mph - N/A   Scattered Clouds
10:00 AM 38 °F - 29 °F 62% 29.82 in 7 mi NE 8.9 mph - - Rain Drizzle
10:25 AM 37.4 °F 30.3 °F 28.4 °F 70% 29.80 in 6.2 mi NNE 10.4 mph - N/A   Scattered Clouds
10:55 AM 37.4 °F 30.3 °F 26.6 °F 65% 29.80 in 6.2 mi NE 10.4 mph - N/A   Scattered Clouds
11:25 AM 35.6 °F 28.0 °F 26.6 °F 70% 29.80 in 6.2 mi NE 10.4 mph - N/A   Scattered Clouds
11:55 AM 35.6 °F 27.5 °F 28.4 °F 75% 29.80 in 3.7 mi North 11.5 mph - N/A Snow Light Snow Showers
12:25 PM 39.2 °F 34.2 °F 28.4 °F 65% 29.80 in 6.2 mi NNE 6.9 mph - N/A   Scattered Clouds
12:55 PM 37.4 °F 32.1 °F 28.4 °F 70% 29.80 in 5.6 mi North 6.9 mph - N/A Snow Light Snow Showers
1:00 PM 36 °F - 28 °F 63% 29.82 in 9 mi North 8.9 mph - - Rain Light Rain Showers
1:25 PM 39.2 °F 32.5 °F 28.4 °F 65% 29.80 in 6.2 mi NE 10.4 mph - N/A   Scattered Clouds
1:55 PM 39.2 °F 32.0 °F 24.8 °F 56% 29.80 in 6.2 mi NE 11.5 mph - N/A   Scattered Clouds
2:25 PM 41.0 °F 34.7 °F 24.8 °F 53% 29.80 in 6.2 mi NE 10.4 mph - N/A   Scattered Clouds
2:55 PM 39.2 °F 32.5 °F 26.6 °F 61% 29.80 in 6.2 mi NNE 10.4 mph - N/A   Unknown
3:25 PM 37.4 °F 30.3 °F 24.8 °F 60% 29.80 in 6.2 mi North 10.4 mph - N/A   Scattered Clouds
3:55 PM 37.4 °F 28.5 °F 26.6 °F 65% 29.83 in 6.2 mi North 15.0 mph - N/A   Mostly Cloudy
4:00 PM 38 °F - 26 °F 50% 29.83 in 22 mi North 11.2 mph - -   Partly Cloudy
4:25 PM 37.4 °F 29.8 °F 26.6 °F 65% 29.83 in 6.2 mi NNE 11.5 mph - N/A   Mostly Cloudy
4:55 PM 37.4 °F 29.3 °F 24.8 °F 60% 29.83 in 6.2 mi North 12.7 mph - N/A   Scattered Clouds
5:25 PM 39.2 °F 31.6 °F 23.0 °F 52% 29.83 in 6.2 mi North 12.7 mph - N/A   Partly Cloudy
5:55 PM 37.4 °F 28.9 °F 24.8 °F 60% 29.83 in 6.2 mi NNE 13.8 mph - N/A   Scattered Clouds
6:25 PM 37.4 °F 30.3 °F 24.8 °F 60% 29.83 in 6.2 mi NNE 10.4 mph - N/A   Partly Cloudy
6:55 PM 35.6 °F 26.6 °F 26.6 °F 70% 29.86 in 6.2 mi NE 13.8 mph - N/A   Partly Cloudy
7:00 PM 35 °F - 26 °F 59% 29.87 in 25 mi NNE 13.4 mph - -   Partly Cloudy
7:25 PM 33.8 °F 25.3 °F 26.6 °F 75% 29.86 in 6.2 mi North 11.5 mph - N/A   Partly Cloudy
7:55 PM 33.8 °F 26.4 °F 24.8 °F 70% 29.86 in 6.2 mi North 9.2 mph - N/A   Partly Cloudy
8:25 PM 33.8 °F 25.3 °F 26.6 °F 75% 29.86 in 6.2 mi North 11.5 mph - N/A   Partly Cloudy
8:55 PM 32.0 °F 24.2 °F 26.6 °F 80% 29.89 in - NNE 9.2 mph - N/A   Clear
9:25 PM 32.0 °F 24.2 °F 26.6 °F 80% 29.89 in - NNE 9.2 mph - N/A   Clear
9:55 PM 32.0 °F 24.2 °F 26.6 °F 80% 29.89 in - North 9.2 mph - N/A   Clear
10:00 PM 31 °F - 27 °F 78% 29.91 in 22 mi North 8.9 mph - -   Scattered Clouds
10:25 PM 30.2 °F 23.4 °F 26.6 °F 86% 29.89 in - NNE 6.9 mph - N/A   Clear
10:55 PM 30.2 °F 22.6 °F 26.6 °F 86% 29.89 in - NNE 8.1 mph - N/A   Clear
11:25 PM 30.2 °F 23.4 °F 26.6 °F 86% 29.92 in - NNE 6.9 mph - N/A   Clear
11:55 PM 28.4 °F 22.2 °F 24.8 °F 86% 29.92 in 6.2 mi North 5.8 mph - N/A   Partly Cloudy